| time (UTC) | temp C | wind direction | speed KPH | gust KPH | rain 1hr cm | rain 24hr cm | rain mn cm | humidity % | barometer mb |
| 20260507002037 | 8 | 0 | 0.0 | 0.0 | 0.00 | 0.69 | 0.00 | 94 | 1015.4 |
| 20260507001037 | 8 | 0 | 0.0 | 0.0 | 0.00 | 0.71 | 0.00 | 94 | 1015.4 |
| 20260506235044 | 8 | 0 | 0.0 | 0.0 | 0.00 | 0.79 | 0.00 | 95 | 1015.3 |
| 20260506234042 | 8 | 0 | 0.0 | 0.0 | 0.00 | 0.81 | 0.00 | 96 | 1015.3 |
| 20260506233042 | 8 | 0 | 0.0 | 0.0 | 0.00 | 0.84 | 0.00 | 96 | 1015.2 |
| 20260506232041 | 8 | 0 | 0.0 | 0.0 | 0.00 | 0.86 | 0.00 | 97 | 1015.1 |
| 20260506231040 | 8 | 0 | 0.0 | 0.0 | 0.00 | 0.89 | 0.00 | 97 | 1015.1 |
| 20260506230042 | 8 | 0 | 0.0 | 0.0 | 0.00 | 0.91 | 0.00 | 98 | 1015.0 |
| 20260506225041 | 8 | 0 | 0.0 | 0.0 | 0.00 | 0.94 | 0.00 | 98 | 1014.9 |
| 20260506224045 | 7 | 0 | 0.0 | 0.0 | 0.00 | 0.97 | 0.00 | 98 | 1014.8 |
| 20260506223042 | 7 | 0 | 0.0 | 0.0 | 0.00 | 0.99 | 0.00 | 98 | 1014.7 |
| 20260506222042 | 7 | 0 | 0.0 | 0.0 | 0.00 | 1.02 | 0.00 | 98 | 1014.6 |
| 20260506221044 | 7 | 0 | 0.0 | 0.0 | 0.00 | 1.04 | 0.00 | 97 | 1014.6 |
| 20260506215047 | 7 | 0 | 0.0 | 0.0 | 0.00 | 1.09 | 1.09 | 97 | 1014.5 |
| 20260506214048 | 7 | 0 | 0.0 | 0.0 | 0.00 | 1.09 | 1.09 | 96 | 1014.4 |
| 20260506213048 | 8 | 0 | 0.0 | 0.0 | 0.00 | 1.12 | 1.09 | 95 | 1014.3 |
| 20260506212049 | 8 | 0 | 0.0 | 0.0 | 0.00 | 1.14 | 1.09 | 95 | 1014.3 |
| 20260506211047 | 8 | 0 | 0.0 | 0.0 | 0.00 | 1.17 | 1.09 | 94 | 1014.3 |
| 20260506210048 | 8 | 0 | 0.0 | 0.0 | 0.00 | 1.19 | 1.09 | 93 | 1014.1 |
| 20260506205047 | 8 | 0 | 0.0 | 0.0 | 0.00 | 1.24 | 1.09 | 92 | 1014.1 |
| 20260506204047 | 8 | 0 | 0.0 | 0.0 | 0.00 | 1.27 | 1.09 | 91 | 1014.1 |
| 20260506203045 | 8 | 0 | 0.0 | 0.0 | 0.00 | 1.27 | 1.09 | 90 | 1014.1 |
| 20260506202045 | 8 | 0 | 0.0 | 0.0 | 0.00 | 1.30 | 1.09 | 88 | 1014.0 |
| 20260506201050 | 9 | 0 | 0.0 | 0.0 | 0.00 | 1.32 | 1.09 | 86 | 1013.9 |
| 20260506194044 | 9 | 0 | 0.0 | 0.0 | 0.00 | 1.40 | 1.09 | 84 | 1013.7 |
| 20260506193044 | 9 | 0 | 0.0 | 0.0 | 0.00 | 1.40 | 1.09 | 83 | 1013.6 |
| 20260506192042 | 10 | 0 | 0.0 | 0.0 | 0.00 | 1.42 | 1.09 | 82 | 1013.4 |
| 20260506191042 | 10 | 0 | 0.0 | 0.0 | 0.00 | 1.45 | 1.09 | 81 | 1013.3 |
| 20260506190049 | 10 | 0 | 0.0 | 0.0 | 0.00 | 1.45 | 1.09 | 79 | 1013.2 |
| 20260506185043 | 10 | 0 | 0.0 | 0.0 | 0.00 | 1.47 | 1.09 | 76 | 1013.1 |
| 20260506184040 | 10 | 0 | 0.0 | 0.0 | 0.00 | 1.52 | 1.09 | 76 | 1012.9 |
| 20260506183045 | 11 | 0 | 0.0 | 0.0 | 0.00 | 1.55 | 1.09 | 75 | 1012.9 |
| 20260506182044 | 11 | 0 | 0.0 | 0.0 | 0.00 | 1.55 | 1.09 | 75 | 1012.8 |
| 20260506181038 | 11 | 0 | 0.0 | 0.0 | 0.00 | 1.55 | 1.09 | 75 | 1012.6 |
| 20260506175043 | 11 | 0 | 0.0 | 0.0 | 0.00 | 1.60 | 1.09 | 77 | 1012.2 |
| 20260506174043 | 11 | 0 | 0.0 | 0.0 | 0.00 | 1.60 | 1.09 | 78 | 1012.1 |
| 20260506173039 | 11 | 0 | 0.0 | 0.0 | 0.00 | 1.63 | 1.09 | 79 | 1012.0 |
| 20260506172047 | 11 | 0 | 0.0 | 0.0 | 0.00 | 1.63 | 1.09 | 80 | 1012.0 |
| 20260506170038 | 11 | 0 | 0.0 | 0.0 | 0.00 | 1.63 | 1.09 | 77 | 1011.9 |
| 20260506165038 | 11 | 0 | 0.0 | 0.0 | 0.00 | 1.63 | 1.09 | 76 | 1011.8 |
| 20260506164040 | 11 | 0 | 0.0 | 0.0 | 0.00 | 1.63 | 1.09 | 75 | 1011.8 |
| 20260506163040 | 12 | 0 | 0.0 | 0.0 | 0.00 | 1.63 | 1.09 | 75 | 1011.7 |
| 20260506161038 | 12 | 0 | 0.0 | 0.0 | 0.00 | 1.63 | 1.09 | 75 | 1011.7 |
| 20260506160039 | 12 | 0 | 0.0 | 0.0 | 0.00 | 1.63 | 1.09 | 74 | 1011.5 |
| 20260506154043 | 12 | 0 | 0.0 | 0.0 | 0.00 | 1.63 | 1.09 | 77 | 1011.4 |
| 20260506153040 | 12 | 0 | 0.0 | 0.0 | 0.00 | 1.63 | 1.09 | 78 | 1011.4 |
| 20260506152040 | 13 | 0 | 0.0 | 0.0 | 0.00 | 1.63 | 1.09 | 78 | 1011.4 |
| 20260506151040 | 12 | 0 | 0.0 | 0.0 | 0.00 | 1.63 | 1.09 | 82 | 1011.3 |
| 20260506150038 | 12 | 0 | 0.0 | 0.0 | 0.00 | 1.63 | 1.09 | 84 | 1011.3 |
| 20260506145040 | 12 | 0 | 0.0 | 0.0 | 0.00 | 1.63 | 1.09 | 83 | 1011.3 |
| 20260506144039 | 12 | 0 | 0.0 | 0.0 | 0.00 | 1.63 | 1.09 | 84 | 1011.3 |
| 20260506143040 | 12 | 0 | 0.0 | 0.0 | 0.00 | 1.63 | 1.09 | 86 | 1011.3 |
| 20260506142039 | 12 | 0 | 0.0 | 0.0 | 0.00 | 1.63 | 1.09 | 86 | 1011.3 |
| 20260506141038 | 12 | 0 | 0.0 | 0.0 | 0.00 | 1.63 | 1.09 | 85 | 1011.3 |
| 20260506140040 | 12 | 0 | 0.0 | 0.0 | 0.00 | 1.63 | 1.09 | 86 | 1011.3 |
| 20260506134040 | 11 | 0 | 0.0 | 0.0 | 0.00 | 1.63 | 1.09 | 84 | 1011.3 |
| 20260506131039 | 11 | 0 | 0.0 | 0.0 | 0.00 | 1.63 | 1.09 | 87 | 1011.3 |
| 20260506130039 | 11 | 0 | 0.0 | 0.0 | 0.00 | 1.63 | 1.09 | 88 | 1011.2 |
| 20260506125040 | 11 | 0 | 0.0 | 0.0 | 0.00 | 1.63 | 1.09 | 91 | 1011.2 |
| 20260506124037 | 11 | 0 | 0.0 | 0.0 | 0.00 | 1.63 | 1.09 | 92 | 1011.1 |
| 20260506123042 | 10 | 0 | 0.0 | 0.0 | 0.00 | 1.63 | 1.09 | 92 | 1011.1 |
| 20260506122040 | 10 | 0 | 0.0 | 0.0 | 0.00 | 1.63 | 1.09 | 91 | 1011.1 |
| 20260506120038 | 11 | 0 | 0.0 | 0.0 | 0.00 | 1.63 | 1.09 | 90 | 1011.0 |
| 20260506115038 | 11 | 0 | 0.0 | 0.0 | 0.03 | 1.63 | 1.09 | 94 | 1010.9 |
| 20260506114038 | 10 | 0 | 0.0 | 0.0 | 0.03 | 1.63 | 1.09 | 95 | 1011.0 |
| 20260506113039 | 10 | 0 | 0.0 | 0.0 | 0.03 | 1.63 | 1.09 | 96 | 1011.0 |
| 20260506112037 | 10 | 0 | 0.0 | 0.0 | 0.05 | 1.63 | 1.09 | 97 | 1011.1 |
| 20260506111039 | 10 | 0 | 0.0 | 0.0 | 0.05 | 1.63 | 1.09 | 98 | 1011.1 |
| 20260506105039 | 10 | 0 | 0.0 | 0.0 | 0.05 | 1.63 | 1.09 | 98 | 1011.1 |
| 20260506104037 | 9 | 0 | 0.0 | 0.0 | 0.05 | 1.60 | 1.07 | 98 | 1011.1 |
| 20260506103039 | 9 | 0 | 0.0 | 0.0 | 0.05 | 1.60 | 1.07 | 98 | 1011.1 |
| 20260506102039 | 9 | 0 | 0.0 | 0.0 | 0.05 | 1.60 | 1.07 | 99 | 1011.0 |
| 20260506100037 | 9 | 0 | 0.0 | 0.0 | 0.05 | 1.57 | 1.04 | 10 | 1010.8 |
| 20260506095039 | 8 | 0 | 0.0 | 0.0 | 0.05 | 1.57 | 1.04 | 10 | 1010.8 |
| 20260506093039 | 8 | 0 | 0.0 | 0.0 | 0.03 | 1.55 | 1.02 | 10 | 1010.7 |
| 20260506092038 | 8 | 0 | 0.0 | 0.0 | 0.03 | 1.57 | 1.02 | 10 | 1010.6 |
| 20260506091039 | 8 | 0 | 0.0 | 0.0 | 0.03 | 1.55 | 0.99 | 10 | 1010.6 |
| 20260506090039 | 8 | 0 | 0.0 | 0.0 | 0.03 | 1.55 | 0.99 | 10 | 1010.4 |
| 20260506085040 | 8 | 0 | 0.0 | 0.0 | 0.03 | 1.55 | 0.99 | 10 | 1010.4 |
| 20260506084038 | 8 | 0 | 0.0 | 0.0 | 0.05 | 1.55 | 0.99 | 10 | 1010.3 |
| 20260506083037 | 8 | 0 | 0.0 | 0.0 | 0.05 | 1.57 | 0.99 | 10 | 1010.2 |
| 20260506082039 | 8 | 0 | 0.0 | 0.0 | 0.05 | 1.63 | 0.99 | 10 | 1010.1 |
| 20260506081039 | 8 | 0 | 0.0 | 0.0 | 0.05 | 1.63 | 0.99 | 10 | 1010.1 |
| 20260506073038 | 8 | 0 | 0.0 | 0.0 | 0.05 | 1.57 | 0.97 | 10 | 1009.8 |
| 20260506072036 | 8 | 0 | 0.0 | 0.0 | 0.05 | 1.57 | 0.97 | 10 | 1009.8 |
| 20260506062037 | 7 | 0 | 0.0 | 0.0 | 0.05 | 1.52 | 0.89 | 10 | 1009.5 |
| 20260506051038 | 7 | 0 | 0.0 | 0.0 | 0.05 | 1.50 | 0.84 | 10 | 1009.4 |
| 20260506045036 | 7 | 0 | 0.0 | 0.0 | 0.08 | 1.50 | 0.81 | 10 | 1009.4 |
| 20260506044037 | 7 | 0 | 0.0 | 0.0 | 0.05 | 1.47 | 0.79 | 10 | 1009.3 |
| 20260506043039 | 7 | 0 | 0.0 | 0.0 | 0.05 | 1.47 | 0.79 | 10 | 1009.3 |
| 20260506042037 | 7 | 0 | 0.0 | 0.0 | 0.08 | 1.47 | 0.79 | 10 | 1009.3 |
| 20260506041036 | 7 | 0 | 0.0 | 0.0 | 0.08 | 1.45 | 0.79 | 10 | 1009.3 |
| 20260506040039 | 7 | 0 | 0.0 | 0.0 | 0.08 | 1.45 | 0.79 | 10 | 1009.3 |
| 20260506035037 | 7 | 0 | 0.0 | 0.0 | 0.05 | 1.45 | 0.76 | 10 | 1009.3 |
| 20260506034038 | 7 | 0 | 0.0 | 0.0 | 0.05 | 1.42 | 0.74 | 10 | 1009.4 |
| 20260506032037 | 7 | 0 | 0.0 | 0.0 | 0.10 | 1.42 | 0.74 | 10 | 1009.4 |
| 20260506031036 | 7 | 0 | 0.0 | 0.0 | 0.10 | 1.40 | 0.71 | 10 | 1009.5 |
| 20260506030037 | 7 | 0 | 0.0 | 0.0 | 0.10 | 1.37 | 0.71 | 10 | 1009.6 |
| 20260506025038 | 7 | 0 | 0.0 | 0.0 | 0.13 | 1.37 | 0.71 | 10 | 1009.6 |
| 20260506024037 | 7 | 0 | 0.0 | 0.0 | 0.15 | 1.37 | 0.71 | 10 | 1009.7 |
| 20260506023038 | 7 | 0 | 0.0 | 0.0 | 0.15 | 1.37 | 0.69 | 10 | 1009.7 |
| 20260506022037 | 8 | 0 | 0.0 | 0.0 | 0.15 | 1.35 | 0.66 | 10 | 1009.8 |
| 20260506020037 | 8 | 0 | 0.0 | 0.0 | 0.15 | 1.30 | 0.61 | 10 | 1009.8 |
| 20260506015037 | 8 | 0 | 0.0 | 0.0 | 0.15 | 1.27 | 0.61 | 10 | 1009.8 |
| 20260506014039 | 8 | 0 | 0.0 | 0.0 | 0.15 | 1.27 | 0.58 | 10 | 1009.9 |
| 20260506013038 | 8 | 0 | 0.0 | 0.0 | 0.15 | 1.24 | 0.56 | 10 | 1009.9 |
| 20260506012037 | 8 | 0 | 0.0 | 0.0 | 0.15 | 1.22 | 0.53 | 10 | 1009.9 |
| 20260506011038 | 8 | 0 | 0.0 | 0.0 | 0.15 | 1.19 | 0.51 | 10 | 1009.9 |
| 20260506010036 | 8 | 0 | 0.0 | 0.0 | 0.15 | 1.17 | 0.48 | 10 | 1010.0 |
| 20260506005037 | 8 | 0 | 0.0 | 0.0 | 0.18 | 1.14 | 0.46 | 10 | 1010.0 |
| 20260506004036 | 8 | 0 | 0.0 | 0.0 | 0.20 | 1.14 | 0.46 | 10 | 1010.1 |